Date String (YYYY-MM-DD hh:mm:ss) UTC,Instrument flags,Ambient pressure (hPa),Sample flow (lpm),Bypass flow (lpm),Sample temperature (°C),Ambient temperature (°C),ASC tube jacket temperature (°C),LED temperature (°C),Box temperature (°C),Sample RH (%),Span deviation,Mass concentration (μg/m³),Mass concentration (μg/m³),Mass concentration (μg/m³)
DateTimeUTC,F1_M11,P_M11,Q1_M11,Q2_M11,T1_M11,T2_M11,T3_M11,T4_M11,T5_M11,U1_M11,ZSPAN_M11,X0_M11,X2_M11,X1_M11
2023-04-09 18:00:00,,0835.5,5.00,0.00,25.5,24.2,00.0,33.7,27.1,13.3,0000.0,0009.81,0004.32,0003.37
2023-04-09 18:01:00,,0835.5,5.00,0.00,25.5,24.3,00.0,33.7,27.2,13.6,0000.0,0009.82,0004.30,0003.35
2023-04-09 18:02:00,,0835.5,5.00,0.00,25.5,24.3,00.0,33.7,27.2,14.0,0000.0,0009.92,0004.30,0003.34
2023-04-09 18:03:00,,0835.5,4.99,0.00,25.5,24.3,00.0,33.7,27.2,13.8,0000.0,0010.01,0004.31,0003.35
2023-04-09 18:04:00,,0835.5,5.01,0.00,25.5,24.3,00.0,33.7,27.2,14.0,0000.0,0009.71,0004.35,0003.40
2023-04-09 18:05:00,,0835.5,5.00,0.00,25.5,24.3,00.0,33.7,27.3,13.8,0000.0,0009.54,0004.44,0003.47
2023-04-09 18:06:00,,0835.5,5.00,0.00,25.6,24.3,00.0,33.8,27.3,13.9,0000.0,0009.85,0004.53,0003.51
2023-04-09 18:07:00,,0835.4,5.01,0.00,25.6,24.4,00.0,33.8,27.3,13.2,0000.0,0009.78,0004.53,0003.52
2023-04-09 18:08:00,,0835.5,4.99,0.00,25.6,24.4,00.0,33.8,27.3,12.7,0000.0,0010.19,0004.50,0003.53
2023-04-09 18:09:00,,0835.5,4.99,0.00,25.6,24.4,00.0,33.8,27.3,13.2,0000.0,0010.66,0004.54,0003.52
2023-04-09 18:10:00,,0835.5,5.00,0.00,25.6,24.4,00.0,33.8,27.3,13.4,0000.0,0010.75,0004.60,0003.54
2023-04-09 18:11:00,,0835.5,5.00,0.00,25.6,24.4,00.0,33.8,27.4,13.1,0000.0,0010.86,0004.59,0003.58
2023-04-09 18:12:00,,0835.5,5.00,0.00,25.7,24.4,00.0,33.9,27.4,13.0,0000.0,0010.86,0004.62,0003.59
2023-04-09 18:13:00,,0835.5,5.00,0.00,25.7,24.5,00.0,33.9,27.4,13.2,0000.0,0010.82,0004.57,0003.57
2023-04-09 18:14:00,,0835.4,5.00,0.00,25.7,24.5,00.0,33.9,27.4,13.2,0000.0,0010.88,0004.54,0003.56
2023-04-09 18:15:00,,0835.5,5.00,0.00,25.7,24.5,00.0,33.9,27.4,13.7,0000.0,0010.79,0004.51,0003.52
2023-04-09 18:16:00,,0835.5,5.00,0.00,25.7,24.5,00.0,33.9,27.5,14.0,0000.0,0010.88,0004.48,0003.51
2023-04-09 18:17:00,,0835.5,5.00,0.00,25.8,24.5,00.0,33.9,27.5,13.2,0000.0,0010.73,0004.45,0003.51
2023-04-09 18:18:00,,0835.5,5.00,0.00,25.8,24.6,00.0,34.0,27.5,12.8,0000.0,0010.57,0004.42,0003.50
2023-04-09 18:19:00,,0835.4,5.00,0.00,25.8,24.6,00.0,34.0,27.5,12.9,0000.0,0010.39,0004.42,0003.50
2023-04-09 18:20:00,,0835.4,5.00,0.00,25.8,24.6,00.0,34.0,27.5,13.5,0000.0,0010.03,0004.43,0003.53
2023-04-09 18:21:00,,0835.4,5.01,0.00,25.8,24.6,00.0,34.0,27.6,13.4,0000.0,0010.69,0004.42,0003.53
2023-04-09 18:22:00,,0835.3,4.99,0.00,25.8,24.6,00.0,34.0,27.6,13.2,0000.0,0010.67,0004.41,0003.51
2023-04-09 18:23:00,,0835.3,5.00,0.00,25.9,24.7,00.0,34.0,27.6,13.0,0000.0,0010.36,0004.37,0003.48
2023-04-09 18:24:00,,0835.3,5.00,0.00,25.9,24.7,00.0,34.1,27.6,13.1,0000.0,0010.47,0004.38,0003.50
2023-04-09 18:25:00,,0835.3,5.01,0.00,25.9,24.7,00.0,34.1,27.6,12.9,0000.0,0010.50,0004.40,0003.51
2023-04-09 18:26:00,,0835.4,5.01,0.00,25.9,24.7,00.0,34.1,27.6,12.8,0000.0,0010.31,0004.41,0003.53
2023-04-09 18:27:00,,0835.3,5.00,0.00,25.9,24.7,00.0,34.1,27.6,12.8,0000.0,0010.25,0004.46,0003.53
2023-04-09 18:28:00,,0835.4,5.00,0.00,25.9,24.7,00.0,34.1,27.6,12.6,0000.0,0010.21,0004.42,0003.50
2023-04-09 18:29:00,,0835.4,5.00,0.00,25.9,24.7,00.0,34.1,27.6,12.5,0000.0,0010.26,0004.38,0003.47
2023-04-09 18:30:00,,0835.5,5.00,0.00,26.0,24.7,00.0,34.1,27.6,13.2,0000.0,0010.35,0004.43,0003.51
2023-04-09 18:31:00,,0835.5,5.00,0.00,26.0,24.8,00.0,34.2,27.6,13.4,0000.0,0010.97,0004.49,0003.57
2023-04-09 18:32:00,,0835.4,5.00,0.00,26.0,24.8,00.0,34.2,27.7,13.2,0000.0,0010.24,0004.51,0003.62
2023-04-09 18:33:00,,0835.4,5.00,0.00,26.0,24.8,00.0,34.2,27.7,13.1,0000.0,0010.12,0004.55,0003.66
2023-04-09 18:34:00,,0835.4,5.01,0.00,26.0,24.8,00.0,34.2,27.7,13.3,0000.0,0010.64,0004.62,0003.71
2023-04-09 18:35:00,,0835.4,5.00,0.00,26.0,24.8,00.0,34.2,27.7,12.8,0000.0,0010.76,0004.67,0003.73
2023-04-09 18:36:00,,0835.4,4.99,0.00,26.0,24.8,00.0,34.2,27.7,12.8,0000.0,0010.39,0004.67,0003.73
2023-04-09 18:37:00,,0835.5,5.00,0.00,26.1,24.8,00.0,34.3,27.7,12.4,0000.0,0010.52,0004.66,0003.72
2023-04-09 18:38:00,,0835.4,5.00,0.00,26.1,24.8,00.0,34.3,27.7,12.6,0000.0,0010.64,0004.59,0003.71
2023-04-09 18:39:00,,0835.4,4.99,0.00,26.1,24.9,00.0,34.3,27.8,12.7,0000.0,0011.00,0004.60,0003.70
2023-04-09 18:40:00,,0835.5,4.98,0.00,26.1,24.9,00.0,34.3,27.8,12.6,0000.0,0010.86,0004.64,0003.73
2023-04-09 18:41:00,,0835.4,5.00,0.00,26.1,24.9,00.0,34.3,27.7,12.7,0000.0,0011.05,0004.64,0003.71
2023-04-09 18:42:00,,0835.5,5.00,0.00,26.1,24.9,00.0,34.3,27.8,13.0,0000.0,0010.97,0004.64,0003.67
2023-04-09 18:43:00,,0835.4,5.01,0.00,26.1,24.9,00.0,34.3,27.8,13.0,0000.0,0011.32,0004.63,0003.63
2023-04-09 18:44:00,,0835.4,5.00,0.00,26.2,24.9,00.0,34.4,27.8,12.9,0000.0,0011.26,0004.64,0003.60
2023-04-09 18:45:00,,0835.4,5.01,0.00,26.2,24.9,00.0,34.4,27.8,12.9,0000.0,0011.59,0004.61,0003.58
2023-04-09 18:46:00,,0835.4,5.00,0.00,26.2,24.9,00.0,34.4,27.8,12.9,0000.0,0011.57,0004.58,0003.57
2023-04-09 18:47:00,,0835.4,5.00,0.00,26.2,25.0,00.0,34.4,27.9,12.6,0000.0,0011.59,0004.60,0003.58
2023-04-09 18:48:00,,0835.4,4.98,0.00,26.2,25.0,00.0,34.4,27.9,12.6,0000.0,0011.52,0004.60,0003.60
2023-04-09 18:49:00,,0835.4,5.00,0.00,26.2,25.0,00.0,34.4,27.9,12.8,0000.0,0011.33,0004.62,0003.61
2023-04-09 18:50:00,,0835.3,5.00,0.00,26.2,25.0,00.0,34.5,27.9,12.7,0000.0,0011.08,0004.65,0003.62
2023-04-09 18:51:00,,0835.3,5.02,0.00,26.3,25.0,00.0,34.5,27.9,12.4,0000.0,0011.17,0004.65,0003.64
2023-04-09 18:52:00,,0835.4,5.00,0.00,26.3,25.0,00.0,34.5,27.9,12.3,0000.0,0011.03,0004.61,0003.63
2023-04-09 18:53:00,,0835.3,4.99,0.00,26.3,25.0,00.0,34.5,27.9,12.2,0000.0,0010.67,0004.57,0003.62
2023-04-09 18:54:00,,0835.3,4.99,0.00,26.3,25.0,00.0,34.5,27.9,12.2,0000.0,0010.25,0004.56,0003.62
2023-04-09 18:55:00,,0835.4,5.00,0.00,26.3,25.0,00.0,34.5,27.9,12.2,0000.0,0010.21,0004.55,0003.61
2023-04-09 18:56:00,,0835.4,4.99,0.00,26.3,25.0,00.0,34.5,27.9,12.3,0000.0,0009.87,0004.55,0003.62
2023-04-09 18:57:00,,0835.5,5.01,0.00,26.3,25.1,00.0,34.5,28.0,12.2,0000.0,0009.15,0004.54,0003.61
2023-04-09 18:58:00,,0835.4,5.01,0.00,26.4,25.1,00.0,34.6,28.0,12.2,0000.0,0009.52,0004.53,0003.59
2023-04-09 18:59:00,,0835.4,5.00,0.00,26.4,25.1,00.0,34.6,28.0,12.2,0000.0,0009.45,0004.52,0003.58
